格洛纳斯M-732 COSMOS 2458 [GLONASS-M]

导读 | 豆包AI

COSMOS 2458(GLONASS)是独联体(CIS)发射的格洛纳斯全球卫星导航系统卫星,于2009年12月14日发射入轨。作为GLONASS-M系列导航卫星,它属于GLONASS系统空间段,搭载铯原子钟等设备,运行于约19100公里中圆轨道,为全球用户提供定位、导航与授时服务,助力提升GLONASS星座覆盖与服务稳定性。

基本信息
目录编号:
36113
目录名称:
COSMOS 2458 (GLONASS)
国际标识:
2009-070C
轨道中心:
EARTH
卫星名称:
格洛纳斯M-732
卫星全名:
格洛纳斯M-732 COSMOS 2458 [GLONASS-M]
卫星状态:
在轨 (已飞行5981 天)
发射日期:
2009-12-14 UTC
国别 :
俄罗斯(独联体) (CIS)
星等 :
--
轨道信息
数据来源 国际轨道数据 AOE轨道数据
星历时间 2026-04-28T16:09:45+0800
2天前
查看轨道信息
2026-04-30T02:00:00+0800
16小时前
查看轨道信息
半长轴 25509.621km 25509.613km
偏心率 0.0005657 0.0005642
轨道倾角 64.975° 64.975°
近地点辐角 318.464° 318.041°
升交点赤经 72.567° 72.519°
平近点角 219.156° 221.100°
近地点 19117.053km 19117.083km
远地点 19145.915km 19145.869km
周期 675.796分钟 675.796分钟
每日圈数 2.13082 2.130821
详细信息
平衡模式:
三轴稳定
覆盖范围:
全球
运营商:
列舍特涅夫卫星信息系统
运营商所在国:
俄罗斯
制造商(研发单位):
列舍特涅夫卫星信息系统
制造商所在国:
俄罗斯
使用方式:
暂无
卫星简介
格洛纳斯(GLONASS )是苏联/俄罗斯研制卫星导航系统。标准配置为24颗卫星,其中18颗卫星就能保证该系统为俄罗斯境内用户提供全部服务。该卫星已退役。
2D轨道图
3D轨道图
轨道高度分析图
轨道倾角分析图
轨道综合分析图
查看轨道综合分析图